This demonstration page uses our WeatherBlox Daily Observations layout. Learn more.

Left ArrowRight Arrow

Hourly Observations for April 17, 2022

Temp ( °F °C ) Dew Point ( °F °C ) Humidity (%) Winds ( mph kmh ) Pressure ( in mb ) Visibility ( mi km ) Precip ( " mm )
12:53 am 00:53 Clear 52 11.1 35 1.7 53 53 NNW 5 7 30.11 1020 10 16 0.00 0.00
1:53 am 01:53 Clear 49 9.4 38 3.3 66 66 N 5 7 30.12 1020 10 16 0.00 0.00
2:53 am 02:53 Clear 49 9.4 38 3.3 66 66 N 3 6 30.13 1020 10 16 0.00 0.00
3:53 am 03:53 Clear 47 8.3 40 4.4 77 77 Calm 30.14 1021 10 16 0.00 0.00
4:53 am 04:53 Clear 46 7.8 40 4.4 79 79 Calm 30.15 1021 10 16 0.00 0.00
5:53 am 05:53 Clear 45 7.2 40 4.4 83 83 Calm 30.15 1021 10 16 0.00 0.00
6:53 am 06:53 Sunny 45 7.2 39 3.9 80 80 N 3 6 30.16 1021 10 16 0.00 0.00
7:53 am 07:53 Sunny 48 8.9 40 4.4 74 74 Calm 30.19 1023 10 16 0.00 0.00
8:53 am 08:53 Sunny 52 11.1 41 5 66 66 NE 3 6 30.20 1023 10 16 0.00 0.00
9:53 am 09:53 Sunny 56 13.3 40 4.4 55 55 VRB 3 6 30.20 1023 10 16 0.00 0.00
10:53 am 10:53 Sunny 59 15 39 3.9 48 48 Calm 30.20 1023 10 16 0.00 0.00
11:53 am 11:53 Sunny 61 16.1 38 3.3 43 43 Calm 30.18 1022 10 16 0.00 0.00
12:53 pm 12:53 Sunny 66 18.9 34 1.1 30 30 SE 10 17 30.15 1021 10 16 0.00 0.00
1:53 pm 13:53 Sunny 68 20 36 2.2 31 31 SE 10 17 30.13 1020 10 16 0.00 0.00
2:53 pm 14:53 Sunny 70 21.1 31 -0.6 23 23 S 16 26 30.11 1020 10 16 0.00 0.00
3:53 pm 15:53 Sunny 71 21.7 24 -4.4 17 17 S 15 24 30.08 1019 10 16 0.00 0.00
4:53 pm 16:53 Sunny 71 21.7 24 -4.4 17 17 SSW 10 17 30.05 1018 10 16 0.00 0.00
5:53 pm 17:53 Sunny 71 21.7 23 -5 16 16 S 10 17 30.04 1017 10 16 0.00 0.00
6:53 pm 18:53 Sunny 69 20.6 23 -5 17 17 SSW 8 13 30.02 1017 10 16 0.00 0.00
7:53 pm 19:53 Clear 66 18.9 27 -2.8 23 23 S 3 6 30.00 1016 10 16 0.00 0.00
8:53 pm 20:53 Clear 62 16.7 31 -0.6 31 31 SSE 7 11 30.01 1016 10 16 0.00 0.00
9:53 pm 21:53 Clear 55 12.8 34 1.1 45 45 Calm 30.03 1017 10 16 0.00 0.00
10:53 pm 22:53 Clear 54 12.2 36 2.2 51 51 N 7 11 30.03 1017 10 16 0.00 0.00
11:53 pm 23:53 Clear 51 10.6 37 2.8 59 59 N 7 11 30.03 1017 10 16 0.00 0.00

Powered by AerisWeather